Hourly Data Report for April 23, 2022

MIRAMICHI RCS
NEW BRUNSWICK
Current Station Operator: ECCC - MSC

47°00'34.000" N
65°27'54.000" W
33.00 m
8100989
71744
ACQ

Download Data

Hourly Data (April 2022)
Hourly Data Report for April 23, 2022
TIME
LST
Temp Definition
°C
Dew Point Definition
°C
Rel Hum Definition
%
Precip. Amount Definition
mm

Wind Dir Definition
10's deg

Wind Spd Definition
km/h
Visibility Definition
km
Stn Press Definition
kPa
Hmdx Definition


Wind Chill Definition


Weather Definition


00:00 4.2 -3.5 57 0.0 30 11   101.70     LegendNANA
01:00 3.2 -4.3 58 0.0 30 12   101.71     LegendNANA
02:00 2.5 -4.9 58 0.0 29 14   101.72     LegendNANA
03:00 2.0 -5.4 58 0.0 30 13   101.75     LegendNANA
04:00 1.3 -5.7 59 0.0 31 14   101.78     LegendNANA
05:00 0.7 -6.6 58 0.0 31 14   101.82     LegendNANA
06:00 0.3 -7.2 57 0.0 30 11   101.88     LegendNANA
07:00 0.8 -8.3 50 0.0 31 16   101.91     LegendNANA
08:00 1.4 -9.6 44 0.0 31 19   101.90     LegendNANA
09:00 2.5 -9.5 41 0.0 33 16   101.86     LegendNANA
10:00 3.5 -9.5 38 0.0 31 13   101.84     LegendNANA
11:00 4.4 -9.8 35 0.0 32 14   101.79     LegendNANA
12:00 5.8 -10.6 30 0.0 31 15   101.74     LegendNANA
13:00 5.7 -12.8 25 0.0 31 18   101.70     LegendNANA
14:00 6.0 -13.5 23 0.0 31 23   101.69     LegendNANA
15:00 6.6 -12.6 24 0.0 32 15   101.63     LegendNANA
16:00 6.1 -11.8 26 0.0 33 21   101.64     LegendNANA
17:00 5.8 -10.6 30 0.0 33 15   101.66     LegendNANA
18:00 4.2 -10.8 33 0.0 32 20   101.76     LegendNANA
19:00 2.9 -10.9 35 0.0 32 16   101.85     LegendNANA
20:00 1.6 -11.3 38 0.0 33 15   101.92     LegendNANA
21:00 0.6 -10.5 43 0.0 31 7   101.94     LegendNANA
22:00 -0.6 -9.6 51 0.0 29 9   101.91   -4 LegendNANA
23:00 -0.6 -9.6 51 0.0 28 12   101.83   -5 LegendNANA

Notes on Data Quality.

Legend

  • E = Estimated
  • M = Missing
  • NA = Not Available*
  • [empty] = Indicates an unobserved value
Date modified: